This demonstration page uses our WeatherBlox Daily Observations layout. Learn more.

Left ArrowRight Arrow

Hourly Observations for May 28, 2021

Temp ( °F °C ) Dew Point ( °F °C ) Humidity (%) Winds ( mph kmh ) Pressure ( in mb ) Visibility ( mi km ) Precip ( " mm )
12:56 am 00:56 Clear 48 8.9 44 6.7 86 86 N 13 20 30.14 1021 10 16 0.00 0.00
1:56 am 01:56 Partly Cloudy 48 8.9 43 6.1 83 83 N 14 22 30.13 1020 10 16 0.00 0.00
2:06 am 02:06 Mostly Cloudy 48 9 43 6 82 82 N 14 22 30.15 1021 10 16 0.00 0.00
2:56 am 02:56 Partly Cloudy 48 8.9 43 6.1 83 83 N 13 20 30.13 1020 10 16 0.00 0.00
3:39 am 03:39 Mostly Cloudy 46 8 45 7 93 93 N 16 26 30.16 1021 10 16 0.00 0.00
3:46 am 03:46 Partly Cloudy 46 8 43 6 87 87 N 16 26 30.16 1021 10 16 0.00 0.00
3:56 am 03:56 Partly Cloudy 46 7.8 43 6.1 89 89 N 13 20 30.13 1020 10 16 0.00 0.00
4:04 am 04:04 Mostly Cloudy 46 8 43 6 87 87 N 12 19 30.16 1021 10 16 0.00 0.00
4:34 am 04:34 Partly Cloudy 45 7 43 6 93 93 N 10 17 30.17 1022 10 16 0.00 0.00
4:53 am 04:53 Partly Cloudy 45 7 43 6 93 93 N 10 17 30.18 1022 10 16 0.00 0.00
4:56 am 04:56 Partly Cloudy 45 7.2 43 6.1 93 93 N 9 15 30.15 1021 10 16 0.00 0.00
5:11 am 05:11 Mostly Cloudy 45 7 43 6 93 93 N 10 17 30.19 1022 10 16 0.00 0.00
5:56 am 05:56 Mostly Cloudy 45 7.2 42 5.6 90 90 N 15 24 30.16 1021 10 16 0.00 0.00
6:27 am 06:27 Mostly Cloudy 45 7 43 6 93 93 N 8 13 30.21 1023 10 16 0.00 0.00
6:44 am 06:44 Mostly Sunny 45 7 43 6 93 93 N 8 13 30.22 1023 10 16 0.00 0.00
6:56 am 06:56 Mostly Cloudy 45 7.2 42 5.6 90 90 N 7 11 30.19 1022 10 16 0.00 0.00
7:40 am 07:40 Mostly Cloudy 46 8 43 6 87 87 N 13 20 30.22 1023 10 16 0.00 0.00
7:56 am 07:56 Cloudy 48 8.9 43 6.1 83 83 N 10 17 30.21 1023 10 16 0.00 0.00
8:56 am 08:56 Cloudy 48 8.9 43 6.1 83 83 N 9 15 30.21 1023 10 16 0.00 0.00
9:29 am 09:29 Partly Cloudy 52 11 43 6 72 72 NNW 14 22 30.20 1023 10 16 0.00 0.00
9:36 am 09:36 Mostly Cloudy 52 11 43 6 72 72 N 13 20 30.21 1023 10 16 0.00 0.00
9:44 am 09:44 Partly Cloudy 52 11 43 6 72 72 N 14 22 30.21 1023 10 16 0.00 0.00
9:56 am 09:56 Mostly Cloudy 52 11.1 42 5.6 69 69 N 13 20 30.21 1023 10 16 0.00 0.00
10:53 am 10:53 Partly Cloudy 54 12 43 6 67 67 NNE 13 20 30.19 1022 10 16 0.00 0.00
10:56 am 10:56 Partly Cloudy 54 12.2 43 6.1 67 67 NNE 13 20 30.20 1023 10 16 0.00 0.00
11:03 am 11:03 Mostly Cloudy 54 12 43 6 67 67 NNE 9 15 30.19 1022 10 16 0.00 0.00
11:56 am 11:56 Cloudy 54 12.2 43 6.1 67 67 ENE 8 13 30.21 1023 10 16 0.00 0.00
12:56 pm 12:56 Cloudy 54 12.2 44 6.7 69 69 NNE 6 9 30.19 1022 10 16 0.00 0.00
1:39 pm 13:39 Cloudy 55 13 45 7 67 67 ENE 12 19 30.15 1021 10 16 0.00 0.00
1:56 pm 13:56 Cloudy 55 12.8 44 6.7 67 67 ENE 15 24 30.17 1022 10 16 0.00 0.00
2:27 pm 14:27 Cloudy 55 13 45 7 67 67 E 10 17 30.16 1021 10 16 0.00 0.00
2:48 pm 14:48 Cloudy 55 13 45 7 67 67 VRB 7 11 30.16 1021 10 16 0.00 0.00
2:56 pm 14:56 Cloudy 55 12.8 45 7.2 69 69 E 7 11 30.18 1022 10 16 0.00 0.00
3:56 pm 15:56 Mostly Cloudy 56 13.3 45 7.2 67 67 E 8 13 30.17 1022 10 16 0.00 0.00
4:14 pm 16:14 Partly Cloudy 57 14 45 7 63 63 E 6 9 30.13 1020 10 16 0.00 0.00
4:41 pm 16:41 Mostly Cloudy 55 13 45 7 67 67 ENE 6 9 30.13 1020 10 16 0.00 0.00
4:56 pm 16:56 Cloudy 57 13.9 46 7.8 67 67 E 10 17 30.14 1021 10 16 0.00 0.00
5:56 pm 17:56 Mostly Cloudy 57 13.9 46 7.8 67 67 E 12 19 30.13 1020 10 16 0.00 0.00
6:24 pm 18:24 Mostly Cloudy 57 14 46 8 67 67 ENE 6 9 30.10 1019 10 16 0.00 0.00
6:56 pm 18:56 Cloudy 56 13.3 46 7.8 70 70 E 8 13 30.13 1020 10 16 0.00 0.00
7:29 pm 19:29 Cloudy 55 13 46 8 72 72 E 13 20 30.10 1019 10 16 0.00 0.00
7:56 pm 19:56 Cloudy 54 12.2 46 7.8 75 75 E 9 15 30.14 1021 10 16 0.00 0.00
8:56 pm 20:56 Mostly Cloudy 52 11.1 45 7.2 77 77 E 12 19 30.14 1021 10 16 0.00 0.00
9:56 pm 21:56 Clear 50 10 44 6.7 80 80 ESE 10 17 30.15 1021 10 16 0.00 0.00
10:56 pm 22:56 Clear 48 8.9 45 7.2 89 89 E 14 22 30.15 1021 10 16 0.00 0.00
11:56 pm 23:56 Clear 47 8.3 44 6.7 90 90 E 10 17 30.15 1021 10 16 0.00 0.00

Powered by AerisWeather